User: anonymous   Login
Location: Poughquag
(41.6090°N, 73.6820°W)
Time: 04:11:21
(UTC-05:00)
Language:

JY1SAT - Orbit

View from above orbital plane
View from above orbital plane
View from above satellite
View from above satellite

Ground track
Ground track

The orbit data is extracted from the following two-line orbital elements,

1 43803U 18099AX  23342.78716755  .00005548  00000-0  41061-3 0  9992
2 43803  97.5502  41.0077 0010139 233.5301 126.4991 15.03517943273909
Epoch (UTC): 08 December 2023 18:53:31
Eccentricity: 0.0010139
inclination: 97.5502°
perigee height: 549 km
apogee height: 563 km
right ascension of ascending node: 41.0077°
argument of perigee: 233.5301°
revolutions per day: 15.03517943
mean anomaly at epoch: 126.4991°
orbit number at epoch: 27390

The dashed part of the orbit path shows where the satellite is in the earth's shadow,  

DLR